Total_Precipitation_Accumulation
0.00 0.00 0.00 0.03 0.02 0.02 0.03 0.00 0.00 0.00 0.00 0.00 0.00 0.00 0.00 0.00 0.01 0.03 0.00 0.00 0.00 0.00 0.00 0.00 0.00 0.00 0.00 0.00 0.00 0.00 0.00 0.00 0.00 0.00 0.00 0.00 0.00 0.00 0.00 0.00 0.00 0.00 0.00 0.00 0.00 0.00 0.00 0.00 0.00
0.00 0.00 0.00 0.01 0.02 0.06 0.04 0.00 0.00 0.00 0.00 0.00 0.00 0.00 0.00 0.00 0.00 0.00 0.00 0.00 0.00 0.00 0.00 0.00 0.00 0.00 0.00 0.00 0.00 0.00 0.00 0.00 0.00 0.00 0.00 0.00 0.00 0.00 0.00 0.00 0.00 0.00 0.00 0.00 0.00 0.00 0.00 0.00 0.00
0.00 0.00 0.00 0.00 0.01 0.08 0.06 0.00 0.00 0.00 0.00 0.00 0.00 0.00 0.00 0.00 0.00 0.00 0.00 0.00 0.00 0.00 0.00 0.00 0.00 0.00 0.00 0.00 0.00 0.00 0.00 0.00 0.00 0.00 0.00 0.00 0.00 0.00 0.00 0.00 0.00 0.00 0.00 0.00 0.00 0.00 0.00 0.00 0.01
0.00 0.00 0.00 0.00 0.01 0.05 0.04 0.02 0.01 0.00 0.00 0.00 0.00 0.00 0.00 0.00 0.00 0.00 0.00 0.00 0.00 0.00 0.00 0.00 0.00 0.00 0.00 0.00 0.00 0.00 0.00 0.00 0.00 0.00 0.00 0.00 0.00 0.00 0.00 0.00 0.00 0.00 0.00 0.00 0.00 0.00 0.00 0.00 0.00
0.00 0.00 0.00 0.00 0.01 0.08 0.07 0.03 0.02 0.01 0.00 0.00 0.00 0.00 0.00 0.00 0.00 0.00 0.00 0.00 0.00 0.00 0.00 0.00 0.00 0.00 0.00 0.00 0.00 0.00 0.00 0.00 0.00 0.00 0.00 0.00 0.00 0.00 0.00 0.00 0.00 0.00 0.00 0.00 0.00 0.00 0.00 0.00 0.00
0.00 0.00 0.00 0.00 0.01 0.03 0.06 0.03 0.02 0.01 0.00 0.00 0.00 0.00 0.00 0.00 0.00 0.00 0.00 0.00 0.00 0.00 0.00 0.00 0.00 0.00 0.00 0.00 0.00 0.00 0.00 0.00 0.00 0.00 0.00 0.00 0.00 0.01 0.01 0.02 0.01 0.01 0.01 0.01 0.00 0.00 0.00 0.01 0.01
0.00 0.00 0.00 0.00 0.01 0.01 0.02 0.02 0.01 0.01 0.01 0.01 0.00 0.00 0.01 0.00 0.00 0.00 0.00 0.00 0.00 0.00 0.00 0.00 0.00 0.00 0.00 0.00 0.00 0.00 0.00 0.00 0.00 0.00 0.00 0.00 0.00 0.02 0.03 0.05 0.04 0.03 0.02 0.03 0.01 0.00 0.00 0.01 0.01
0.00 0.00 0.00 0.00 0.00 0.00 0.01 0.01 0.01 0.01 0.01 0.01 0.00 0.00 0.00 0.00 0.00 0.00 0.00 0.00 0.00 0.00 0.00 0.00 0.00 0.00 0.00 0.00 0.00 0.00 0.00 0.00 0.00 0.00 0.00 0.00 0.01 0.02 0.03 0.03 0.04 0.07 0.07 0.07 0.05 0.02 0.01 0.01 0.01
0.00 0.00 0.00 0.00 0.00 0.00 0.00 0.01 0.01 0.00 0.00 0.00 0.00 0.00 0.00 0.00 0.00 0.00 0.00 0.00 0.00 0.01 0.01 0.00 0.00 0.00 0.00 0.00 0.00 0.00 0.00 0.00 0.00 0.00 0.00 0.01 0.00 0.01 0.03 0.03 0.05 0.08 0.09 0.09 0.05 0.03 0.03 0.03 0.01
0.00 0.00 0.00 0.00 0.00 0.00 0.00 0.00 0.00 0.00 0.00 0.00 0.00 0.01 0.01 0.00 0.00 0.00 0.00 0.00 0.00 0.01 0.01 0.00 0.00 0.00 0.00 0.00 0.00 0.00 0.00 0.00 0.00 0.00 0.01 0.01 0.04 0.06 0.05 0.08 0.14 0.13 0.14 0.11 0.09 0.07 0.05 0.04 0.05
0.00 0.00 0.00 0.00 0.00 0.00 0.00 0.00 0.00 0.00 0.00 0.00 0.00 0.01 0.02 0.01 0.00 0.00 0.00 0.00 0.00 0.00 0.00 0.00 0.00 0.01 0.00 0.00 0.00 0.00 0.00 0.02 0.02 0.01 0.02 0.07 0.08 0.06 0.06 0.06 0.08 0.09 0.11 0.09 0.15 0.18 0.10 0.09 0.15
0.00 0.00 0.00 0.00 0.00 0.00 0.00 0.00 0.00 0.00 0.00 0.00 0.00 0.02 0.05 0.04 0.01 0.00 0.00 0.00 0.00 0.00 0.00 0.00 0.00 0.01 0.01 0.00 0.00 0.00 0.00 0.02 0.02 0.03 0.02 0.03 0.04 0.03 0.02 0.04 0.05 0.06 0.06 0.10 0.16 0.18 0.11 0.11 0.08
0.00 0.00 0.00 0.00 0.00 0.00 0.00 0.00 0.00 0.00 0.00 0.00 0.00 0.01 0.01 0.01 0.00 0.00 0.00 0.00 0.00 0.00 0.00 0.00 0.00 0.01 0.01 0.02 0.02 0.00 0.00 0.00 0.00 0.01 0.02 0.02 0.03 0.02 0.01 0.01 0.02 0.02 0.03 0.07 0.10 0.09 0.10 0.14 0.09
0.00 0.00 0.00 0.00 0.00 0.00 0.00 0.00 0.00 0.00 0.00 0.00 0.00 0.00 0.00 0.00 0.00 0.01 0.01 0.00 0.01 0.01 0.00 0.00 0.01 0.01 0.02 0.02 0.02 0.01 0.00 0.00 0.01 0.01 0.01 0.02 0.02 0.02 0.02 0.01 0.03 0.02 0.01 0.02 0.06 0.08 0.14 0.14 0.15
0.00 0.00 0.00 0.00 0.00 0.00 0.00 0.00 0.00 0.00 0.00 0.00 0.00 0.00 0.00 0.00 0.01 0.01 0.01 0.01 0.02 0.01 0.02 0.02 0.01 0.01 0.01 0.01 0.01 0.01 0.01 0.01 0.03 0.02 0.02 0.03 0.02 0.02 0.03 0.03 0.03 0.04 0.05 0.06 0.07 0.10 0.12 0.14 0.16
0.00 0.00 0.00 0.00 0.00 0.00 0.00 0.00 0.00 0.00 0.00 0.00 0.01 0.01 0.01 0.01 0.01 0.01 0.02 0.02 0.02 0.03 0.04 0.05 0.05 0.04 0.04 0.05 0.05 0.04 0.04 0.04 0.04 0.05 0.06 0.06 0.06 0.07 0.11 0.09 0.08 0.14 0.15 0.14 0.19 0.19 0.23 0.34 0.37
0.00 0.00 0.00 0.00 0.00 0.00 0.00 0.00 0.00 0.00 0.00 0.00 0.01 0.02 0.03 0.02 0.01 0.02 0.04 0.05 0.05 0.05 0.07 0.12 0.14 0.16 0.20 0.21 0.19 0.15 0.11 0.08 0.06 0.07 0.10 0.13 0.16 0.20 0.28 0.26 0.29 0.33 0.32 0.31 0.27 0.32 0.42 0.47 0.55
0.00 0.00 0.00 0.00 0.00 0.00 0.00 0.00 0.00 0.00 0.00 0.01 0.03 0.05 0.05 0.03 0.03 0.04 0.07 0.07 0.06 0.06 0.10 0.16 0.29 0.38 0.46 0.49 0.43 0.33 0.24 0.16 0.13 0.13 0.16 0.22 0.28 0.38 0.53 0.49 0.52 0.53 0.49 0.46 0.50 0.53 0.58 0.54 0.62
0.00 0.00 0.00 0.00 0.00 0.00 0.00 0.00 0.00 0.00 0.02 0.03 0.04 0.05 0.06 0.05 0.06 0.06 0.06 0.06 0.03 0.04 0.08 0.19 0.35 0.48 0.56 0.62 0.61 0.58 0.46 0.42 0.34 0.32 0.37 0.46 0.54 0.66 0.84 0.73 0.78 0.75 0.67 0.60 0.65 0.68 0.61 0.55 0.71
0.00 0.00 0.00 0.00 0.00 0.00 0.00 0.00 0.00 0.02 0.04 0.06 0.07 0.10 0.13 0.13 0.13 0.14 0.15 0.12 0.09 0.08 0.11 0.17 0.31 0.42 0.48 0.60 0.72 0.79 0.87 0.77 0.68 0.67 0.73 0.75 0.81 0.85 0.92 0.96 0.91 0.88 0.81 0.68 0.66 0.68 0.58 0.48 0.59
0.00 0.00 0.00 0.00 0.00 0.00 0.00 0.00 0.01 0.04 0.07 0.12 0.17 0.22 0.26 0.28 0.31 0.31 0.28 0.23 0.16 0.11 0.12 0.21 0.29 0.37 0.52 0.69 0.85 0.95 1.08 1.03 1.04 1.11 1.20 1.11 1.12 1.09 1.11 1.02 0.97 0.91 0.87 0.73 0.65 0.67 0.64 0.56 0.57
0.00 0.00 0.00 0.00 0.00 0.00 0.00 0.00 0.00 0.01 0.04 0.11 0.18 0.23 0.28 0.29 0.25 0.20 0.20 0.18 0.17 0.15 0.19 0.32 0.38 0.46 0.66 0.91 1.03 1.10 1.27 1.41 1.57 1.78 1.73 1.58 1.43 1.29 1.18 1.02 0.88 0.77 0.75 0.68 0.63 0.68 0.70 0.68 0.55
0.00 0.00 0.00 0.00 0.00 0.00 0.00 0.00 0.00 0.01 0.03 0.10 0.16 0.19 0.22 0.19 0.14 0.15 0.21 0.30 0.34 0.29 0.36 0.56 0.66 0.81 1.02 1.19 1.32 1.43 1.55 1.65 1.67 1.67 1.58 1.46 1.36 1.22 1.09 0.96 0.85 0.77 0.70 0.63 0.60 0.60 0.61 0.62 0.56
0.00 0.00 0.00 0.00 0.00 0.00 0.01 0.02 0.01 0.02 0.03 0.07 0.10 0.13 0.13 0.10 0.09 0.15 0.28 0.56 0.77 0.77 0.74 0.80 0.88 1.02 1.16 1.24 1.32 1.36 1.35 1.33 1.26 1.17 1.07 0.98 0.93 0.84 0.76 0.67 0.59 0.57 0.55 0.55 0.53 0.51 0.52 0.52 0.53
0.00 0.00 0.00 0.00 0.00 0.01 0.01 0.01 0.02 0.03 0.04 0.06 0.07 0.06 0.06 0.08 0.14 0.16 0.21 0.30 0.39 0.47 0.51 0.54 0.53 0.65 0.77 0.83 0.84 0.84 0.81 0.77 0.71 0.66 0.61 0.56 0.51 0.44 0.39 0.36 0.35 0.34 0.35 0.35 0.36 0.36 0.37 0.39 0.41
0.00 0.00 0.00 0.00 0.00 0.00 0.00 0.01 0.02 0.03 0.02 0.02 0.02 0.01 0.01 0.02 0.04 0.05 0.06 0.09 0.23 0.37 0.49 0.53 0.48 0.45 0.44 0.47 0.49 0.44 0.40 0.40 0.38 0.37 0.36 0.34 0.34 0.31 0.28 0.27 0.29 0.29 0.29 0.28 0.30 0.31 0.29 0.29 0.31
0.00 0.00 0.00 0.00 0.00 0.00 0.00 0.01 0.02 0.02 0.01 0.01 0.02 0.01 0.01 0.01 0.00 0.00 0.01 0.01 0.10 0.24 0.33 0.35 0.36 0.40 0.43 0.45 0.43 0.35 0.29 0.27 0.25 0.25 0.29 0.32 0.34 0.32 0.31 0.33 0.35 0.37 0.40 0.38 0.35 0.33 0.31 0.33 0.34
0.00 0.00 0.00 0.00 0.00 0.00 0.00 0.00 0.00 0.01 0.01 0.01 0.01 0.01 0.01 0.00 0.00 0.00 0.00 0.01 0.03 0.10 0.19 0.27 0.32 0.36 0.41 0.45 0.44 0.38 0.30 0.24 0.22 0.25 0.29 0.30 0.30 0.32 0.36 0.37 0.40 0.41 0.39 0.36 0.31 0.31 0.31 0.35 0.37
0.01 0.01 0.00 0.00 0.00 0.01 0.01 0.00 0.00 0.01 0.01 0.00 0.00 0.00 0.00 0.00 0.00 0.01 0.05 0.10 0.16 0.26 0.35 0.41 0.42 0.38 0.39 0.41 0.41 0.38 0.33 0.30 0.28 0.29 0.29 0.29 0.28 0.29 0.33 0.37 0.38 0.38 0.37 0.34 0.31 0.31 0.31 0.33 0.34
0.00 0.00 0.00 0.00 0.00 0.00 0.01 0.00 0.00 0.01 0.01 0.00 0.00 0.00 0.00 0.00 0.01 0.05 0.12 0.19 0.24 0.31 0.40 0.45 0.49 0.52 0.54 0.58 0.63 0.69 0.66 0.60 0.51 0.38 0.33 0.34 0.37 0.36 0.36 0.39 0.39 0.38 0.39 0.42 0.41 0.36 0.37 0.36 0.34